Weather History for KANE - May, 2013

Change the Weather History Date:

Wednesday, May 1, 2013

  Actual Average Record
Temperature  
Mean Temperature 46 °F -  
Max Temperature 57 °F 62 °F 78 °F (1998)
Min Temperature 35 °F 41 °F 28 °F (1997)
Degree Days  
Heating Degree Days 19    
Moisture  
Dew Point 34 °F    
Average Humidity 67    
Maximum Humidity 100    
Minimum Humidity 41    
Precipitation  
Precipitation 0.04 in - - ()
Sea Level Pressure  
Sea Level Pressure 30.24 in    
Wind  
Wind Speed 10 mph (NW)    
Max Wind Speed 21 mph    
Max Gust Speed 22 mph    
Visibility 9 miles    
Events Rain , Snow    
Averages and records for this station are not official NWS values.
T = Trace of Precipitation, MM = Missing Value Source: NWS Daily Summary

Daily Weather History Graph

Daily Weather History Graph

Search for Another Location

Airport or City:

Trip Planner

Search our weather history database for the weather conditions in past years. The results will help you decide how hot, cold, wet, or windy it might be!

Date:

Astronomy

May. 01, 2013 Rise Set
Actual Time 6:01 AM CDT 8:19 PM CDT
Civil Twilight 5:28 AM CDT 8:51 PM CDT
Nautical Twilight 4:48 AM CDT 9:32 PM CDT
Astronomical Twilight 4:03 AM CDT 10:17 PM CDT
Moon 1:29 AM CDT (5/1) 11:40 AM CDT (5/1)
Length of Visible Light 15h 22m
Length of Day
14h 17m
Waning Gibbous, 59% of the Moon is Illuminated
May 1
Waning Gibbous
May 2
Last Quarter
May 9
New
May 17
First Quarter
May 24
Full

Hourly Weather History & Observations

Time (CDT) Temp. Windchill Dew Point Humidity Pressure Visibility Wind Dir Wind Speed Gust Speed Precip Events Conditions
12:14 AM 57.2 °F - 35.6 °F 44% 29.97 in 10.0 mi WNW 12.7 mph 17.3 mph N/A   Overcast
12:34 AM 57.2 °F - 33.8 °F 41% 29.98 in 10.0 mi WNW 13.8 mph - N/A   Overcast
12:54 AM 55.4 °F - 35.6 °F 47% 29.99 in 10.0 mi NW 10.4 mph 18.4 mph N/A   Overcast
1:14 AM 55.4 °F - 35.6 °F 47% 29.99 in 10.0 mi NW 8.1 mph - N/A   Mostly Cloudy
1:34 AM 55.4 °F - 35.6 °F 47% 29.99 in 10.0 mi NW 11.5 mph - N/A   Mostly Cloudy
2:14 AM 53.6 °F - 35.6 °F 51% 30.04 in 10.0 mi WNW 13.8 mph 21.9 mph N/A   Overcast
2:34 AM 53.6 °F - 33.8 °F 47% 30.05 in 10.0 mi NW 20.7 mph - N/A   Mostly Cloudy
2:54 AM 51.8 °F - 33.8 °F 50% 30.06 in 10.0 mi NW 20.7 mph - N/A   Overcast
3:14 AM 51.8 °F - 33.8 °F 50% 30.06 in 10.0 mi NW 11.5 mph - N/A   Overcast
3:34 AM 50.0 °F - 35.6 °F 58% 30.07 in 10.0 mi NW 11.5 mph - N/A Rain Light Rain
4:14 AM 48.2 °F - 37.4 °F 66% 30.08 in 10.0 mi NNW 3.5 mph - N/A   Overcast
4:34 AM 48.2 °F - 37.4 °F 66% 30.10 in 10.0 mi Calm Calm - N/A Rain Rain
4:53 AM 46.4 °F 44.3 °F 39.2 °F 76% 30.09 in 10.0 mi NW 4.6 mph - N/A Rain Light Rain
5:14 AM 46.4 °F - 37.4 °F 71% 30.09 in 10.0 mi Calm Calm - N/A Rain Light Rain
5:34 AM 46.4 °F 41.1 °F 39.2 °F 76% 30.13 in 10.0 mi West 11.5 mph - 0.01 in Rain Light Rain
5:53 AM 44.6 °F 39.7 °F 37.4 °F 76% 30.16 in 10.0 mi West 9.2 mph - 0.02 in Rain Light Rain
6:14 AM 44.6 °F 43.1 °F 37.4 °F 76% 30.16 in 10.0 mi WSW 3.5 mph - 0.01 in Rain Light Rain
6:34 AM 44.6 °F 40.2 °F 39.2 °F 81% 30.18 in 10.0 mi West 8.1 mph - 0.01 in Rain Rain
6:45 AM 44.6 °F 41.4 °F 37.4 °F 76% 30.20 in 7.0 mi West 5.8 mph - N/A Rain Light Rain
6:53 AM 44.6 °F 41.4 °F 37.4 °F 76% 30.20 in 10.0 mi West 5.8 mph - 0.02 in Rain Light Rain
7:45 AM 41.0 °F 32.5 °F 35.6 °F 81% 30.23 in 6.0 mi NW 17.3 mph - N/A Rain Light Rain
9:45 AM 37.4 °F 29.3 °F 35.6 °F 93% 30.28 in 4.0 mi NW 12.7 mph - N/A Snow Light Snow
10:45 AM 35.6 °F 27.5 °F 35.6 °F 100% 30.27 in 4.0 mi NW 11.5 mph 16.1 mph N/A Snow Light Snow
11:45 AM 35.6 °F 26.2 °F 33.8 °F 93% 30.31 in 1.8 mi NW 15.0 mph 21.9 mph N/A Snow Light Snow Showers
12:45 PM 35.6 °F 28.0 °F 33.8 °F 93% 30.32 in 3.0 mi NW 10.4 mph - N/A Snow Light Snow
2:50 PM 39.2 °F 35.9 °F 33.8 °F 81% 30.36 in 7.0 mi WNW 4.6 mph - N/A   Overcast
3:50 PM 42.8 °F 38.6 °F 32.0 °F 66% 30.36 in 10.0 mi NNW 6.9 mph - N/A   Overcast
4:45 PM 42.8 °F 37.5 °F 33.8 °F 70% 30.39 in 10.0 mi NNW 9.2 mph 16.1 mph N/A   Overcast
5:50 PM 41.0 °F 35.8 °F 35.6 °F 81% 30.40 in 7.0 mi ENE 8.1 mph - N/A   Light Drizzle
6:55 PM 41.0 °F - 35.6 °F 81% 30.42 in 10.0 mi Calm Calm - N/A   Overcast
7:45 PM 42.8 °F 41.1 °F 35.6 °F 76% 30.44 in 10.0 mi North 3.5 mph - N/A   Overcast
8:50 PM 42.8 °F 36.2 °F 28.4 °F 57% 30.45 in 10.0 mi NNW 12.7 mph - N/A   Overcast
9:34 PM 42.8 °F 36.6 °F 30.2 °F 61% 30.46 in 10.0 mi NNW 11.5 mph - N/A   Overcast
9:45 PM 42.8 °F 37.0 °F 28.4 °F 57% 30.46 in 10.0 mi NNW 10.4 mph - N/A   Overcast
9:54 PM 42.8 °F 37.5 °F 30.2 °F 61% 30.46 in 10.0 mi North 9.2 mph - N/A   Overcast
10:14 PM 42.8 °F 38.0 °F 30.2 °F 61% 30.46 in 10.0 mi North 8.1 mph - N/A   Overcast
10:34 PM 42.8 °F 38.6 °F 30.2 °F 61% 30.47 in 10.0 mi North 6.9 mph - N/A   Overcast
10:54 PM 41.0 °F 36.4 °F 30.2 °F 65% 30.47 in 10.0 mi North 6.9 mph - N/A   Overcast
11:14 PM 41.0 °F 35.2 °F 30.2 °F 65% 30.47 in 10.0 mi NNW 9.2 mph - N/A   Overcast
11:34 PM 41.0 °F 34.7 °F 30.2 °F 65% 30.46 in 10.0 mi North 10.4 mph - N/A   Overcast
11:54 PM 41.0 °F 34.3 °F 28.4 °F 61% 30.48 in 10.0 mi North 11.5 mph - N/A   Overcast